Tracking 28514 objects as of 25-Feb-2024
HD Live streaming from Space Station
objects crossing your sky now

EXOCUBE

Track EXOCUBE now!
10-day predictions
EXOCUBE is classified as:


NORAD ID: 40380
Int'l Code: 2015-003E
Perigee: 364.6 km
Apogee: 448.6 km
Inclination: 99.1 °
Period: 92.5 minutes
Semi major axis: 6777 km
RCS: Unknown
Launch date: January 31, 2015
Source: United States (US)
Launch site: AIR FORCE WESTERN TEST RANGE (AFWTR)

Uplink (MHz):
Downlink (MHz): 437.270
Beacon (MHz): 437.270
Mode: 9600bps FSK CW
Call sign: KK6HGC XO3
Status: Inactive

Your satellite tracking list
Your tracking list is empty




NASA's NSSDC Master Catalog

Two Line Element Set (TLE):
1 40380U 15003E   24055.76328170  .00077066  00000-0  10122-2 0  9998
2 40380  99.1032  49.0896 0061957 150.1352 210.3456 15.55935053501640
Source of the keplerian elements: Caltech